Weather History for Heber, UT

Change the Weather History Date:

Wednesday, November 21, 2012

  Actual Average (KPVU) Record (KPVU)
Temperature  
Mean Temperature 46 °F -  
Max Temperature 59 °F 43 °F 64 °F (1996)
Min Temperature 32 °F 27 °F 19 °F (2000)
Degree Days  
Heating Degree Days 20    
Moisture  
Dew Point 27 °F    
Average Humidity 59    
Maximum Humidity 93    
Minimum Humidity 22    
Precipitation  
Precipitation 0.00 in - - ()
Sea Level Pressure  
Sea Level Pressure 30.06 in    
Wind  
Wind Speed 4 mph (SW)    
Max Wind Speed 21 mph    
Max Gust Speed 29 mph    
Visibility 10 miles    
Events      
Averages and records for this station are not official NWS values.
T = Trace of Precipitation, MM = Missing Value Source: NWS Daily Summary

Daily Weather History Graph

Daily Weather History Graph

Search for Another Location

Airport:

Trip Planner

Search our weather history database for the weather conditions in past years. The results will help you decide how hot, cold, wet, or windy it might be!

Date:

Astronomy

Nov. 21, 2012 Rise Set
Actual Time 7:19 AM MST 5:03 PM MST
Civil Twilight 6:49 AM MST 5:33 PM MST
Nautical Twilight 6:16 AM MST 6:06 PM MST
Astronomical Twilight 5:43 AM MST 6:39 PM MST
Moon 1:23 PM MST (11/21) 12:41 AM MST (11/21)
Length of Visible Light 10h 43m
Length of Day
9h 44m
Waxing Gibbous, 62% of the Moon is Illuminated
Nov 21
Waxing Gibbous
Nov 28
Full
Dec 6
Last Quarter
Dec 13
New
Dec 19
First Quarter

Hourly Weather History & Observations

Time (MST) Temp. Windchill Dew Point Humidity Pressure Visibility Wind Dir Wind Speed Gust Speed Precip Events Conditions
12:15 AM 35.6 °F - 30.2 °F 81% 30.12 in 10.0 mi Calm Calm - N/A   Clear
12:35 AM 35.6 °F 32.8 °F 30.2 °F 81% 30.12 in 10.0 mi North 3.5 mph - N/A   Clear
12:55 AM 35.6 °F - 30.2 °F 81% 30.11 in 10.0 mi Calm Calm - N/A   Clear
1:15 AM 33.8 °F - 30.2 °F 87% 30.11 in 10.0 mi Calm Calm - N/A   Clear
1:35 AM 33.8 °F - 28.4 °F 81% 30.10 in 10.0 mi Calm Calm - N/A   Clear
1:55 AM 33.8 °F - 30.2 °F 87% 30.10 in 10.0 mi Calm Calm - N/A   Clear
2:15 AM 33.8 °F - 30.2 °F 87% 30.10 in 10.0 mi Calm Calm - N/A   Clear
2:35 AM 35.6 °F - 30.2 °F 81% 30.10 in 10.0 mi Calm Calm - N/A   Clear
2:55 AM 33.8 °F - 30.2 °F 87% 30.10 in 10.0 mi Calm Calm - N/A   Clear
3:15 AM 32.0 °F - 30.2 °F 93% 30.10 in 10.0 mi Calm Calm - N/A   Clear
3:35 AM 33.8 °F - 28.4 °F 81% 30.09 in 10.0 mi Calm Calm - N/A   Clear
3:55 AM 35.6 °F - 28.4 °F 75% 30.08 in 10.0 mi Calm Calm - N/A   Clear
4:15 AM 33.8 °F 29.6 °F 28.4 °F 81% 30.08 in 10.0 mi West 4.6 mph - N/A   Clear
4:35 AM 33.8 °F - 28.4 °F 81% 30.07 in 10.0 mi Calm Calm - N/A   Clear
4:55 AM 32.0 °F - 28.4 °F 87% 30.07 in 10.0 mi Calm Calm - N/A   Clear
5:15 AM 32.0 °F 28.7 °F 28.4 °F 87% 30.08 in 10.0 mi WSW 3.5 mph - N/A   Clear
5:35 AM 33.8 °F - 28.4 °F 81% 30.08 in 10.0 mi Calm Calm - N/A   Clear
5:55 AM 32.0 °F - 26.6 °F 80% 30.08 in 10.0 mi Calm Calm - N/A   Clear
6:15 AM 32.0 °F - 28.4 °F 87% 30.07 in 10.0 mi Calm Calm - N/A   Clear
6:35 AM 32.0 °F - 26.6 °F 80% 30.07 in 10.0 mi Calm Calm - N/A   Clear
6:55 AM 32.0 °F 27.5 °F 26.6 °F 80% 30.07 in 10.0 mi SE 4.6 mph - N/A   Clear
7:15 AM 32.0 °F - 26.6 °F 80% 30.07 in 10.0 mi Calm Calm - N/A   Clear
7:35 AM 32.0 °F - 26.6 °F 80% 30.07 in 10.0 mi Calm Calm - N/A   Clear
7:55 AM 32.0 °F 27.5 °F 26.6 °F 80% 30.08 in 10.0 mi West 4.6 mph - N/A   Clear
8:15 AM 32.0 °F - 28.4 °F 87% 30.08 in 10.0 mi Calm Calm - N/A   Clear
8:35 AM 35.6 °F - 30.2 °F 81% 30.08 in 10.0 mi Calm Calm - N/A   Clear
8:55 AM 37.4 °F - 30.2 °F 75% 30.08 in 10.0 mi Calm Calm - N/A   Clear
9:15 AM 41.0 °F - 30.2 °F 65% 30.08 in 10.0 mi Calm Calm - N/A   Clear
9:35 AM 41.0 °F - 32.0 °F 70% 30.08 in 10.0 mi Calm Calm - N/A   Clear
10:15 AM 50.0 °F - 32.0 °F 50% 30.08 in 10.0 mi West 6.9 mph - N/A   Clear
10:35 AM 53.6 °F - 23.0 °F 30% 30.07 in 10.0 mi West 3.5 mph - N/A   Clear
11:15 AM 57.2 °F - 21.2 °F 25% 30.07 in 10.0 mi SW 17.3 mph - N/A   Clear
11:35 AM 57.2 °F - 21.2 °F 25% 30.05 in 10.0 mi SW 16.1 mph 23.0 mph N/A   Clear
11:55 AM 59.0 °F - 19.4 °F 22% 30.05 in 10.0 mi WSW 18.4 mph 24.2 mph N/A   Clear
12:15 PM 59.0 °F - 19.4 °F 22% 30.04 in 10.0 mi WSW 16.1 mph 26.5 mph N/A   Clear
12:35 PM 59.0 °F - 19.4 °F 22% 30.04 in 10.0 mi WSW 20.7 mph 26.5 mph N/A   Clear
12:55 PM 59.0 °F - 19.4 °F 22% 30.02 in 10.0 mi WSW 16.1 mph 25.3 mph N/A   Clear
1:15 PM 59.0 °F - 21.2 °F 23% 30.02 in 10.0 mi SW 13.8 mph 26.5 mph N/A   Clear
1:35 PM 57.2 °F - 21.2 °F 25% 30.01 in 10.0 mi SW 20.7 mph 28.8 mph N/A   Clear
1:55 PM 55.4 °F - 23.0 °F 29% 30.01 in 10.0 mi SW 18.4 mph - N/A   Clear
2:15 PM 55.4 °F - 23.0 °F 29% 30.01 in 10.0 mi SW 15.0 mph 24.2 mph N/A   Clear
2:55 PM 53.6 °F - 23.0 °F 30% 30.01 in 10.0 mi SW 15.0 mph 20.7 mph N/A   Clear
3:15 PM 53.6 °F - 23.0 °F 30% 30.01 in 10.0 mi SW 15.0 mph 23.0 mph N/A   Clear
3:35 PM 53.6 °F - 23.0 °F 30% 30.01 in 10.0 mi WSW 12.7 mph - N/A   Clear
3:55 PM 51.8 °F - 24.8 °F 35% 30.01 in 10.0 mi SSW 9.2 mph - N/A   Clear
4:15 PM 51.8 °F - 24.8 °F 35% 30.01 in 10.0 mi SW 8.1 mph - N/A   Clear
4:35 PM 51.8 °F - 24.8 °F 35% 30.01 in 10.0 mi SSW 9.2 mph - N/A   Clear
4:55 PM 51.8 °F - 23.0 °F 33% 30.01 in 10.0 mi SW 13.8 mph 17.3 mph N/A   Clear
5:15 PM 50.0 °F - 24.8 °F 37% 30.01 in 10.0 mi SW 9.2 mph - N/A   Clear
5:35 PM 51.8 °F - 24.8 °F 35% 30.02 in 10.0 mi SW 10.4 mph - N/A   Clear
5:55 PM 50.0 °F - 24.8 °F 37% 30.02 in 10.0 mi SSE 4.6 mph - N/A   Clear
6:15 PM 46.4 °F 45.2 °F 26.6 °F 46% 30.02 in 10.0 mi South 3.5 mph - N/A   Clear
6:35 PM 46.4 °F 43.5 °F 26.6 °F 46% 30.02 in 10.0 mi South 5.8 mph - N/A   Clear
6:55 PM 46.4 °F 45.2 °F 26.6 °F 46% 30.02 in 10.0 mi South 3.5 mph - N/A   Clear
7:15 PM 46.4 °F 41.9 °F 26.6 °F 46% 30.03 in 10.0 mi NNE 9.2 mph - N/A   Clear
7:35 PM 46.4 °F 43.5 °F 24.8 °F 43% 30.03 in 10.0 mi ESE 5.8 mph - N/A   Scattered Clouds
7:55 PM 42.8 °F 38.0 °F 28.4 °F 57% 30.03 in 10.0 mi ESE 8.1 mph - N/A   Scattered Clouds
8:15 PM 42.8 °F 39.3 °F 28.4 °F 57% 30.03 in 10.0 mi ENE 5.8 mph - N/A   Scattered Clouds
8:35 PM 41.0 °F - 28.4 °F 61% 30.03 in 10.0 mi Calm Calm - N/A   Mostly Cloudy
8:55 PM 42.8 °F 41.1 °F 28.4 °F 57% 30.03 in 10.0 mi NNW 3.5 mph - N/A   Mostly Cloudy
9:15 PM 41.0 °F - 28.4 °F 61% 30.04 in 10.0 mi Calm Calm - N/A   Mostly Cloudy
9:35 PM 41.0 °F 38.0 °F 28.4 °F 61% 30.05 in 10.0 mi ENE 4.6 mph - N/A   Scattered Clouds
9:55 PM 42.8 °F 40.1 °F 28.4 °F 57% 30.05 in 10.0 mi SE 4.6 mph - N/A   Mostly Cloudy
10:15 PM 41.0 °F - 28.4 °F 61% 30.05 in 10.0 mi Calm Calm - N/A   Scattered Clouds
10:35 PM 37.4 °F 32.8 °F 28.4 °F 70% 30.06 in 10.0 mi NNE 5.8 mph - N/A   Scattered Clouds
10:55 PM 35.6 °F 32.8 °F 28.4 °F 75% 30.07 in 10.0 mi ESE 3.5 mph - N/A   Mostly Cloudy
11:15 PM 37.4 °F 32.8 °F 28.4 °F 70% 30.08 in 10.0 mi NNE 5.8 mph - N/A   Mostly Cloudy
11:35 PM 41.0 °F - 28.4 °F 61% 30.08 in 10.0 mi Calm Calm - N/A   Overcast